User: anonymous   Login
Location: Newark
(30.8333°N, 61.6667°E)
Time: 22:10:43
(UTC+00:00)
Language:

ISS - Orbit

View from above orbital plane
View from above orbital plane
View from above satellite
View from above satellite

Ground track
Ground track

The orbit data is extracted from the following two-line orbital elements,

1 25544U 98067A   19258.83461897  .00016717  00000-0  10270-3 0  9031
2 25544  51.6410 271.6776 0007352  49.0023 311.1762 15.50074573 29313
Epoch (UTC): 15 September 2019 20:01:51
Eccentricity: 0.0007352
inclination: 51.6410°
perigee height: 411 km
apogee height: 421 km
right ascension of ascending node: 271.6776°
argument of perigee: 49.0023°
revolutions per day: 15.50074573
mean anomaly at epoch: 311.1762°
orbit number at epoch: 2931

The dashed part of the orbit path shows where the satellite is in the earth's shadow,  

DLR